TDRS 13

Last updated on Wed Sep 17 2025 00:02:40 GMT+0000 (Coordinated Universal Time)

1 42915U 17047A 25259.36730832 -.00000116 00000+0 00000+0 0 9992 2 42915 3.4301 355.6265 0013961 126.9688 353.6369 1.00271739 29608
UTC large
Height (km)
Speed (km/s)
/
Latitude / Longitude
Inclination (degrees)
Orbital Period (minutes)
Azimuth
Elevation
Range (km)
Doppler Factor

Next 0 passes for location: London (51.5072 / 0.1276)

Sorry there are no passes over London.